Terminal Aerodrome Forecast
Issued by NWS

Home | Current Version | Previous Version | Text Only | Print | Product List | Glossary On
Versions: 1 2 3 4 5 6 7 8 9 10 11 12 13 14 15 16 17 18 19 20 21 22 23 24
000
FTUS43 KAPX 040535
TAFAPN
TAF
KAPN 040535Z 0406/0506 27010KT P6SM BKN035
      TEMPO 0406/0408 3SM -SHSN OVC030
     FM041400 29012G18KT P6SM SCT025 OVC035=

USA.gov is the U.S. government's official web portal to all federal, state and local government web resources and services.